Westerly, RI

1:58 PM EDT on August 17, 2017 (GMT -0400)
Westerly State

Weather History for KWST - April, 2014

Change the Weather History Date:

Sunday, April 27, 2014

  Actual Average (KGON) Record (KGON)
Temperature  
Mean Temperature 48 °F -  
Max Temperature 55 °F 59 °F 82 °F (1990)
Min Temperature 44 °F 40 °F 28 °F (2002)
Degree Days  
Heating Degree Days 16    
Moisture  
Dew Point 40 °F    
Average Humidity 79    
Maximum Humidity 93    
Minimum Humidity 57    
Precipitation  
Precipitation 0.02 in - - ()
Sea Level Pressure  
Sea Level Pressure 29.94 in    
Wind  
Wind Speed 5 mph (West)    
Max Wind Speed 15 mph    
Max Gust Speed 21 mph    
Visibility 10 miles    
Events Rain    
Averages and records for this station are not official NWS values.
T = Trace of Precipitation, MM = Missing Value Source: NWS Daily Summary

Daily Weather History Graph

Daily Weather History Graph

Search for Another Location

Airport or City:

Trip Planner

Search our weather history database for the weather conditions in past years. The results will help you decide how hot, cold, wet, or windy it might be!

Date:

Astronomy

Apr. 27, 2014 Rise Set
Actual Time 5:49 AM EDT 7:40 PM EDT
Civil Twilight 5:20 AM EDT 8:10 PM EDT
Nautical Twilight 4:44 AM EDT 8:46 PM EDT
Astronomical Twilight 4:05 AM EDT 9:25 PM EDT
Moon 4:49 AM EDT (4/27) 6:10 PM EDT (4/27)
Length of Visible Light 14h 49m
Length of Day
13h 50m
Waning Crescent, 3% of the Moon is Illuminated
Apr 27
Waning Crescent
Apr 29
New
May 6
First Quarter
May 14
Full
May 21
Last Quarter

Hourly Weather History & Observations

Time (EDT) Temp. Windchill Dew Point Humidity Pressure Visibility Wind Dir Wind Speed Gust Speed Precip Events Conditions
12:53 AM 44.1 °F - 42.1 °F 93% 29.88 in 10.0 mi Calm Calm - N/A   Overcast
1:53 AM 44.1 °F 42.5 °F 39.9 °F 85% 29.88 in 10.0 mi SW 3.5 mph - 0.00 in   Overcast
2:01 AM 44.1 °F 42.5 °F 39.9 °F 85% 29.87 in 10.0 mi SW 3.5 mph - N/A   Overcast
2:08 AM 44.1 °F 42.5 °F 39.9 °F 85% 29.87 in 10.0 mi SSW 3.5 mph - N/A   Overcast
2:53 AM 44.1 °F 41.5 °F 39.0 °F 82% 29.87 in 10.0 mi SSW 4.6 mph - N/A   Overcast
3:40 AM 44.1 °F 42.5 °F 39.0 °F 82% 29.86 in 10.0 mi SW 3.5 mph - N/A   Overcast
3:53 AM 44.1 °F 40.8 °F 39.9 °F 85% 29.86 in 10.0 mi West 5.8 mph - N/A   Overcast
4:53 AM 44.1 °F 40.1 °F 41.0 °F 89% 29.86 in 10.0 mi WSW 6.9 mph - N/A   Overcast
5:10 AM 44.1 °F 40.8 °F 39.9 °F 85% 29.86 in 10.0 mi WSW 5.8 mph - N/A   Overcast
5:53 AM 44.1 °F 41.5 °F 39.9 °F 85% 29.86 in 10.0 mi West 4.6 mph - N/A   Overcast
6:53 AM 44.1 °F 42.5 °F 39.9 °F 85% 29.88 in 10.0 mi West 3.5 mph - N/A   Scattered Clouds
8:53 AM 48.9 °F - 39.0 °F 69% 29.90 in 10.0 mi NNW 15.0 mph - N/A   Partly Cloudy
9:46 AM 48.9 °F - 37.9 °F 66% 29.91 in 10.0 mi North 11.5 mph 20.7 mph N/A   Overcast
9:53 AM 48.9 °F - 37.9 °F 66% 29.92 in 10.0 mi NNW 10.4 mph - N/A   Overcast
10:53 AM 50.0 °F - 37.9 °F 63% 29.94 in 10.0 mi NW 8.1 mph - N/A   Overcast
11:13 AM 50.0 °F - 37.9 °F 63% 29.94 in 10.0 mi North 10.4 mph - N/A   Overcast
11:53 AM 51.1 °F - 37.0 °F 59% 29.95 in 10.0 mi North 12.7 mph - N/A   Overcast
12:53 PM 50.0 °F - 39.0 °F 66% 29.95 in 10.0 mi NNE 11.5 mph - 0.00 in   Overcast
2:53 PM 53.1 °F - 37.9 °F 57% 29.96 in 10.0 mi Variable 5.8 mph - 0.00 in   Overcast
4:53 PM 46.9 °F - 44.1 °F 90% 29.98 in 10.0 mi ESE 6.9 mph - 0.00 in   Overcast
5:44 PM 46.0 °F 44.8 °F 42.1 °F 86% 29.99 in 6.0 mi SW 3.5 mph - 0.01 in Rain Light Rain
5:53 PM 46.0 °F 42.5 °F 42.1 °F 86% 29.98 in 3.0 mi South 6.9 mph - 0.02 in Rain Light Rain
6:53 PM 46.0 °F - 43.0 °F 89% 30.00 in 10.0 mi Calm Calm - 0.00 in   Mostly Cloudy
7:53 PM 45.0 °F 43.5 °F 42.1 °F 90% 30.03 in 10.0 mi SW 3.5 mph - N/A   Overcast
8:53 PM 45.0 °F 43.5 °F 43.0 °F 93% 30.06 in 10.0 mi WSW 3.5 mph - N/A   Overcast
9:53 PM 45.0 °F 43.5 °F 43.0 °F 93% 30.07 in 10.0 mi West 3.5 mph - N/A   Overcast
10:53 PM 46.9 °F - 39.0 °F 74% 30.06 in 10.0 mi NNW 6.9 mph - N/A   Overcast
11:53 PM 46.0 °F 43.1 °F 36.0 °F 68% 30.06 in 10.0 mi NNW 5.8 mph - N/A   Clear